Hourly Data Report for June 19, 2017

BORDEN AWOS
ONTARIO

44°16'20.000" N
79°54'42.000" W
222.50 m
611B002
71534
YBN

Download Data

Hourly Data (June 2017)
Hourly Data Report for June 19, 2017
TIME
LST
Temp Definition
°C
Dew Point Definition
°C
Rel Hum Definition
%
Precip. Amount Definition
mm

Wind Dir Definition
10's deg

Wind Spd Definition
km/h
Visibility Definition
km
Stn Press Definition
kPa
Hmdx Definition


Wind Chill Definition


Weather Definition


00:00 16.7 13.9 84   21 7 14.5 97.78     LegendNANA
01:00 15.3 13.7 90   19 6 14.5 97.81     LegendNANA
02:00 15.4 14.0 91   20 13 14.5 97.83     LegendNANA
03:00 14.7 13.7 94   20 7 14.5 97.84     LegendNANA
04:00 14.5 13.6 94   19 9 14.5 97.87     LegendNANA
05:00 14.4 13.5 94   19 7 14.5 97.94     LegendNANA
06:00 16.2 14.6 90   18 9 14.5 97.99     LegendNANA
07:00 19.3 15.3 78   26 13 14.5 98.01     LegendNANA
08:00 20.4 14.6 69   25 26 14.5 98.04     LegendNANA
09:00
10:00
11:00 24.2 14.1 53   25 24 14.5 98.07 28   LegendNANA
12:00 23.3 13.9 56   28 15 14.5 98.10 27   LegendNANA
13:00 23.7 13.5 53   26 15 14.5 98.09 27   LegendNANA
14:00 23.4 13.4 53   28 15 14.5 98.03 26   LegendNANA
15:00 23.8 14.9 58   33 11 14.5 97.99 28   LegendNANA
16:00 23.0 14.4 58   35 9 14.5 97.99 27   LegendNANA
17:00 21.7 14.1 62   35 15 14.5 98.01 25   LegendNANA
18:00 20.2 13.8 67   34 9 14.5 98.06     LegendNANA
19:00 18.5 13.6 73   30 7 14.5 98.07     LegendNANA
20:00 17.2 14.1 82   28 6 14.5 98.06     LegendNANA
21:00 16.6 14.5 87   24 9 14.5 98.12     Rain
22:00 16.0 15.1 94   22 4 14.5 98.16     Rain
23:00 15.8 15.3 97   28 4 14.5 98.17     LegendNANA

Notes on Data Quality.

Legend

  • E = Estimated
  • M = Missing
  • NA = Not Available*
  • [empty] = Indicates an unobserved value
Date modified: